User: anonymous   Login
Location: Unspecified
(0.0000°N, 0.0000°E)
Time: 13:13:18
(UTC+00:00)
Language:

OPTUS D2 - Orbit

View from above orbital plane
View from above orbital plane
View from above satellite
View from above satellite

Ground track
Ground track

The orbit data is extracted from the following two-line orbital elements,

1 32252U 07044A   15107.62931737 -.00000207  00000-0  00000+0 0  9990
2 32252 000.0497 045.6845 0003127 344.8754 193.4306 01.00271420 27570
Epoch (UTC): 17 April 2015 15:06:13
Eccentricity: 0.0003127
inclination: 0.0497°
perigee height: 35773 km
apogee height: 35799 km
right ascension of ascending node: 45.6845°
argument of perigee: 344.8754°
revolutions per day: 1.00271420
mean anomaly at epoch: 193.4306°
orbit number at epoch: 2757

The dashed part of the orbit path shows where the satellite is in the earth's shadow,  

DLR